Location: Chevoux
(46.3801°N, 4.9476°E)
Time: 22:56:34
(UTC+00:00)

Cosmos 44 - Pass Details

Date: 28 January 2021
Orbit: 572 x 790 km, 65.1° (Epoch: 04 March)

Event Time Altitude Azimuth Distance (km) Brightness Sun altitude
Rises 17:26:20 0° 224° (SW) 2,978 7.8 -8.4°
Reaches altitude 10° 17:28:35 10° 227° (SW) 2,104 6.9 -8.8°
Maximum altitude 17:33:21 64° 310° (NW) 784 3.7 -9.6°
Drops below altitude 10° 17:38:29 10° 32° (NNE) 2,257 5.5 -10.5°
Enters shadow 17:39:31 - 34° (NNE) 2,650 5.8 -10.6°
